Kecskemet, Hungary

6:14 PM CEST on October 01, 2016 (GMT +0200)
Kecskemet

Weather History for LHKE - March, 2013

Change the Weather History Date:

Saturday, March 16, 2013

  Actual Average (LHBP) Record (LHBP)
Temperature  
Mean Temperature 24 °F -  
Max Temperature 32 °F 50 °F 62 °F (2008)
Min Temperature 17 °F 30 °F 15 °F (1998)
Degree Days  
Heating Degree Days 40    
Moisture  
Dew Point 19 °F    
Average Humidity 76    
Maximum Humidity 100    
Minimum Humidity 48    
Precipitation  
Precipitation 0.00 in - - ()
Sea Level Pressure  
Sea Level Pressure 30.05 in    
Wind  
Wind Speed 5 mph ()    
Max Wind Speed 9 mph    
Max Gust Speed -    
Visibility 4.7 miles    
Events Snow    
Averages and records for this station are not official NWS values.
T = Trace of Precipitation, MM = Missing Value Source: Averaged Metar Reports

Daily Weather History Graph

Daily Weather History Graph

Search for Another Location

Airport or City:

Trip Planner

Search our weather history database for the weather conditions in past years. The results will help you decide how hot, cold, wet, or windy it might be!

Date:

Astronomy

Mar. 16, 2013 Rise Set
Actual Time 5:51 AM CET 5:48 PM CET
Civil Twilight 5:21 AM CET 6:18 PM CET
Nautical Twilight 4:46 AM CET 6:53 PM CET
Astronomical Twilight 4:10 AM CET 7:30 PM CET
Moon 7:50 AM CET (3/16) 11:00 PM CET (3/16)
Length of Visible Light 12h 56m
Length of Day
11h 56m
Waxing Crescent, 21% of the Moon is Illuminated
Mar 16
Waxing Crescent
Mar 19
First Quarter
Mar 27
Full
Apr 3
Last Quarter
Apr 10
New

Hourly Weather History & Observations

Time (CET) Temp. Windchill Dew Point Humidity Pressure Visibility Wind Dir Wind Speed Gust Speed Precip Events Conditions
12:15 AM 26.6 °F 21.3 °F 24.8 °F 93% 29.92 in 1.2 mi NW 4.5 mph - N/A Snow Snow
12:45 AM 26.6 °F 21.3 °F 24.8 °F 93% 29.92 in 3.1 mi WNW 4.5 mph - N/A Snow Light Snow
1:01 AM 26.6 °F 21.3 °F 24.8 °F 93% 29.92 in 5.0 mi NW 4.5 mph - N/A   Overcast
1:15 AM 24.8 °F 19.2 °F 23.0 °F 93% 29.92 in - NW 4.5 mph - N/A   Clear
1:45 AM 24.8 °F 19.2 °F 21.2 °F 86% 29.92 in - NW 4.5 mph - N/A   Clear
2:15 AM 24.8 °F 17.1 °F 19.4 °F 80% 29.92 in - West 6.7 mph - N/A   Clear
2:45 AM 23.0 °F 14.9 °F 17.6 °F 80% 29.95 in - West 6.7 mph - N/A   Clear
3:15 AM 21.2 °F 12.7 °F 17.6 °F 86% 29.95 in - WNW 6.7 mph - N/A   Clear
3:45 AM 24.8 °F 17.1 °F 19.4 °F 80% 29.95 in - WNW 6.7 mph - N/A   Clear
4:15 AM 24.8 °F 19.2 °F 19.4 °F 80% 29.98 in - WNW 4.5 mph - N/A   Clear
4:45 AM 23.0 °F 14.9 °F 19.4 °F 86% 29.98 in - WNW 6.7 mph - N/A   Clear
5:15 AM 23.0 °F 14.9 °F 17.6 °F 80% 29.98 in - WNW 6.7 mph - N/A   Clear
5:45 AM - - - N/A% - 6.2 mi NW 8.9 mph - N/A   Clear
6:15 AM 24.8 °F 17.1 °F 19.4 °F 80% 30.01 in - West 6.7 mph - N/A   Clear
6:45 AM 24.8 °F 17.1 °F 19.4 °F 80% 30.01 in - West 6.7 mph - N/A   Clear
7:15 AM 24.8 °F 15.5 °F 19.4 °F 80% 30.04 in - West 8.9 mph - N/A   Clear
7:45 AM 24.8 °F 15.5 °F 19.4 °F 80% 30.04 in - West 8.9 mph - N/A   Clear
8:15 AM 24.8 °F 17.1 °F 19.4 °F 80% 30.04 in - WNW 6.7 mph - N/A   Clear
8:45 AM - - - N/A% - 6.2 mi WNW 8.9 mph - N/A   Clear
9:15 AM 26.6 °F 17.7 °F 19.4 °F 74% 30.06 in - WNW 8.9 mph - N/A   Clear
9:45 AM 28.4 °F 19.9 °F 19.4 °F 69% 30.06 in 6.2 mi WNW 8.9 mph - N/A   Mostly Cloudy
10:15 AM 28.4 °F 19.9 °F 19.4 °F 69% 30.06 in 6.2 mi WNW 8.9 mph - N/A   Mostly Cloudy
10:45 AM 30.2 °F 22.1 °F 17.6 °F 60% 30.06 in 6.2 mi WNW 8.9 mph - N/A   Scattered Clouds
11:15 AM 32.0 °F 25.7 °F 15.8 °F 51% 30.06 in 6.2 mi NNW 6.7 mph - N/A   Scattered Clouds
11:45 AM - - - N/A% - 6.2 mi NW 6.7 mph - N/A   Overcast
12:45 PM 32.0 °F 27.6 °F 15.8 °F 51% 30.06 in 6.2 mi NE 4.5 mph - N/A   Mostly Cloudy
1:15 PM 32.0 °F 25.7 °F 17.6 °F 55% 30.06 in 6.2 mi NNE 6.7 mph - N/A   Mostly Cloudy
1:45 PM 32.0 °F 27.6 °F 14.0 °F 48% 30.06 in 6.2 mi North 4.5 mph - N/A   Mostly Cloudy
2:15 PM 32.0 °F 27.6 °F 15.8 °F 51% 30.09 in 6.2 mi North 4.5 mph - N/A   Mostly Cloudy
2:45 PM - - - N/A% - 6.2 mi Variable 4.5 mph - N/A   Overcast
3:15 PM 32.0 °F 25.7 °F 17.6 °F 55% 30.09 in - NNE 6.7 mph - N/A   Clear
3:45 PM 32.0 °F 25.7 °F 15.8 °F 51% 30.09 in - North 6.7 mph - N/A   Clear
4:15 PM 32.0 °F 27.6 °F 17.6 °F 55% 30.09 in - North 4.5 mph - N/A   Clear
4:45 PM 32.0 °F 27.6 °F 17.6 °F 55% 30.09 in - North 4.5 mph - N/A   Clear
5:15 PM 30.2 °F - 19.4 °F 64% 30.09 in - North 2.2 mph - N/A   Clear
5:45 PM - - - N/A% - 1.1 mi Variable 4.5 mph - N/A   Clear
6:15 PM 28.4 °F - 19.4 °F 69% 30.12 in - Calm Calm - N/A   Clear
6:45 PM 28.4 °F - 19.4 °F 69% 30.12 in - Calm Calm - N/A   Clear
7:15 PM 26.6 °F - 19.4 °F 74% 30.12 in - Calm Calm - N/A   Clear
7:45 PM 24.8 °F - 19.4 °F 80% 30.12 in - Calm Calm - N/A   Clear
8:15 PM 23.0 °F - 19.4 °F 86% 30.15 in - ESE 2.2 mph - N/A   Clear
8:45 PM - - - N/A% - 1.1 mi Variable 4.5 mph - N/A   Overcast
9:15 PM 21.2 °F - 19.4 °F 93% 30.15 in - Calm Calm - N/A   Clear
9:45 PM 21.2 °F - 19.4 °F 93% 30.15 in 5.0 mi Calm Calm - N/A   Clear
10:15 PM 19.4 °F - 19.4 °F 100% 30.15 in 4.3 mi Calm Calm - N/A   Clear
10:45 PM 19.4 °F - 17.6 °F 93% 30.15 in 3.7 mi Calm Calm - N/A   Clear
11:00 PM - - - N/A% - 3.1 mi Variable 4.5 mph - N/A   Overcast
11:15 PM 17.6 °F - 17.6 °F 100% 30.15 in 3.7 mi Calm Calm - N/A   Clear
11:31 PM 19.4 °F - 17.6 °F 93% 30.15 in 3.1 mi Calm Calm - N/A   Clear
11:45 PM - - - N/A% - 3.1 mi North - - N/A   Overcast